Location: Bismarck
(46.7731°N, 100.8200°W)
Time: 14:40:41
(UTC-05:00)

Landsat 7 - Visible Passes

Search period start: 19 April 2018 00:00
Search period end: 29 April 2018 00:00
Orbit: 701 x 703 km, 98.2° (Epoch: 19 April)

Date Brightness Start Highest point End Pass type
(mag) Time Alt. Az. Time Alt. Az. Time Alt. Az.
19 Apr 4.4 22:42:32 35° ESE 22:43:38 41° ENE 22:48:07 10° N visible
20 Apr 5.4 00:21:25 25° W 00:21:31 25° W 00:25:28 10° NW visible
20 Apr 5.8 21:46:50 11° E 21:49:09 15° ENE 21:51:47 10° NNE visible
20 Apr 3.7 23:25:42 68° S 23:26:16 82° WSW 23:31:05 10° NNW visible
21 Apr 4.8 22:30:00 27° E 22:31:28 32° ENE 22:35:41 10° N visible
22 Apr 5.0 00:08:52 32° WSW 00:09:11 32° W 00:13:28 10° NNW visible
22 Apr 5.9 21:35:26 10° ENE 21:37:06 12° NE 21:38:45 10° NE visible
22 Apr 3.7 23:13:08 58° SE 23:14:02 78° ENE 23:18:49 10° N visible
23 Apr 6.2 00:52:01 13° W 00:52:22 13° W 00:54:39 10° WNW visible
23 Apr 5.1 22:17:25 20° E 22:19:20 26° ENE 22:23:14 10° N visible
23 Apr 4.6 23:56:18 40° WSW 23:56:52 42° W 00:01:24 10° NNW visible
24 Apr 3.9 23:00:35 44° SE 23:01:50 60° ENE 23:06:31 10° N visible
25 Apr 5.9 00:39:28 17° W 00:39:58 17° W 00:43:07 10° NW visible
25 Apr 5.4 22:04:53 15° E 22:07:12 21° ENE 22:10:42 10° NNE visible
25 Apr 4.2 23:43:45 48° SW 23:44:35 55° W 23:49:16 10° NNW visible
26 Apr 4.3 22:48:03 34° ESE 22:49:38 46° ENE 22:54:11 10° N visible
27 Apr 5.6 00:26:55 22° WSW 00:27:36 22° W 00:31:20 10° NW visible
27 Apr 5.7 21:52:20 11° E 21:55:06 17° ENE 21:58:04 10° NNE visible
27 Apr 3.9 23:31:13 51° SSW 23:32:18 72° WSW 23:37:05 10° NNW visible
28 Apr 4.6 22:35:30 25° ESE 22:37:27 36° ENE 22:41:48 10° N visible
